Dobrodošli na spletni strani vremenske postaje Senovo. Vse informacije so informativnega značaja, saj vremenska postaja ni del državne mreže meteoroloških postaj. OBVESTILO: Letni količini padavin navedeni na spletni strani je potrebno prišteti 98,1 mm, zaradi izgube podatkov.


Posebna pozornost v zvezi z vremenskimi dogajanji ni potrebna.    Posebna pozornost v zvezi z vremenskimi dogajanji ni potrebna.

Pogled proti Armezu več informacij Pogled proti Armezu


Lisca več informacij Lisca


Radar strel več informacij blitzortung!


Radar padavin več informacij rain snow radar


Obiščite še:

Template documentation
and downloads

And another site



Weather Underground, zgodovina - Tekstovno

Dnevni povzetek za Avgust 8, 2017 Enote:  Angleško    Metrično   Obe
« Predhodni Dan
Naslednji Dan »
Dnevni Tedenski Mesečni Letni Po meri
  Višja: Nižja: Povprečje:
Temperatura: 84.6 °F 32 °F 71.4 °F
Točka rosišča: 66.7 °F 59 °F 63.5 °F
Vlažnost: 91 % 0 % 77 %
Hitrost vetra: 3.8 mph 0 mph 1 mph
Sunki vetra: 9.6 mph - -
Veter:- - SSW
Zračni tlak: 30.1 in 0 in -
Padavine: 0 in    
Historical Graphs
 
 
Tabelarni podarki za Avgust 8, 2017
Čas Temperatura Točka rosišča Zračni tlak Veter Hitrost vetra Sunki vetra Vlažnost Intenziteta padavin (urna)
00:03 65.3 °F 59.7 °F 30.1 in Calm     82 % 0 in
00:08 65.5 °F 59.7 °F 30.1 in Calm     82 % 0 in
00:13 65.5 °F 59.7 °F 30.1 in Calm     82 % 0 in
00:18 65.5 °F 59.7 °F 30.1 in Calm     82 % 0 in
00:23 65.5 °F 59.7 °F 30.1 in Calm     82 % 0 in
00:28 65.5 °F 59.7 °F 30.1 in Calm     82 % 0 in
00:33 65.5 °F 59.7 °F 30.1 in Calm     82 % 0 in
00:38 65.5 °F 59.7 °F 30.1 in Calm     82 % 0 in
00:43 65.5 °F 59.7 °F 30.1 in Calm     82 % 0 in
00:48 65.5 °F 59.7 °F 30.1 in Calm     82 % 0 in
00:53 65.5 °F 59.7 °F 30.1 in Calm     82 % 0 in
00:58 65.5 °F 60.3 °F 30.1 in Calm     83 % 0 in
01:03 65.7 °F 60.1 °F 30.1 in Calm     82 % 0 in
01:13 65.7 °F 60.4 °F 30.1 in Calm     83 % 0 in
01:18 65.5 °F 60.3 °F 30.1 in Calm     83 % 0 in
01:23 65.7 °F 60.4 °F 30.1 in Calm     83 % 0 in
01:28 65.5 °F 59.7 °F 30.1 in Calm     82 % 0 in
01:33 65.5 °F 60.3 °F 30.1 in Calm     83 % 0 in
01:38 65.5 °F 60.3 °F 30.1 in Calm     83 % 0 in
01:39 65.5 °F 60.3 °F 30.1 in Calm     83 % 0 in
01:44 65.5 °F 60.3 °F 30.1 in Calm     83 % 0 in
01:49 65.5 °F 60.3 °F 30.1 in Calm     83 % 0 in
01:54 65.5 °F 60.3 °F 30.1 in Calm     83 % 0 in
01:59 65.5 °F 60.3 °F 30.1 in Calm     83 % 0 in
02:04 65.3 °F 60.1 °F 30.1 in Calm     83 % 0 in
02:09 65.1 °F 59.7 °F 30.1 in Calm     83 % 0 in
02:14 65.1 °F 59.7 °F 30.1 in Calm     83 % 0 in
02:19 65.1 °F 60.3 °F 30.1 in Calm     84 % 0 in
02:24 64.9 °F 60.1 °F 30.1 in Calm     84 % 0 in
02:34 64.9 °F 60.1 °F 30.1 in Calm     84 % 0 in
02:39 64.9 °F 60.1 °F 30.1 in Calm     84 % 0 in
02:44 64.9 °F 60.3 °F 30.1 in Calm     85 % 0 in
02:49 64.9 °F 60.3 °F 30 in Calm     85 % 0 in
02:54 64.9 °F 60.3 °F 30 in Calm     85 % 0 in
02:59 64.9 °F 60.3 °F 30 in Calm     85 % 0 in
03:04 64.8 °F 60.1 °F 30 in Calm     85 % 0 in
03:09 64.8 °F 60.1 °F 30 in Calm     85 % 0 in
03:14 64.8 °F 60.1 °F 30 in Calm     85 % 0 in
03:16 64.8 °F 60.1 °F 30 in Calm     85 % 0 in
03:21 64.8 °F 60.1 °F 30 in Calm     85 % 0 in
03:26 64.6 °F 60.3 °F 30 in Calm     86 % 0 in
03:31 64.6 °F 60.1 °F 30 in Calm     85 % 0 in
03:36 64.6 °F 60.3 °F 30.1 in Calm     86 % 0 in
03:45 64.4 °F 60.1 °F 30.1 in Calm     86 % 0 in
03:50 64.4 °F 60.1 °F 30.1 in Calm     86 % 0 in
03:55 64.2 °F 60.3 °F 30.1 in Calm     87 % 0 in
04:00 64.2 °F 60.3 °F 30.1 in Calm     87 % 0 in
04:05 64 °F 60.1 °F 30 in Calm     87 % 0 in
04:10 64 °F 59.7 °F 30 in Calm     86 % 0 in
04:15 63.9 °F 59.5 °F 30 in Calm     86 % 0 in
04:20 63.7 °F 59.4 °F 30.1 in Calm     86 % 0 in
04:25 63.5 °F 59.5 °F 30.1 in Calm     87 % 0 in
04:30 63.1 °F 59.2 °F 30.1 in Calm     87 % 0 in
04:35 63.1 °F 59.5 °F 30.1 in Calm     88 % 0 in
04:40 63 °F 59.4 °F 30.1 in Calm     88 % 0 in
04:45 63 °F 59.4 °F 30.1 in Calm     88 % 0 in
04:50 62.8 °F 59.2 °F 30.1 in Calm     88 % 0 in
04:55 62.6 °F 59 °F 30.1 in Calm     88 % 0 in
05:00 62.6 °F 59.4 °F 30.1 in Calm     89 % 0 in
05:05 62.4 °F 59.2 °F 30.1 in Calm     89 % 0 in
05:10 62.4 °F 59.2 °F 30.1 in Calm     89 % 0 in
05:17 62.4 °F 59.2 °F 30.1 in Calm     89 % 0 in
05:22 62.4 °F 59.4 °F 30.1 in Calm     90 % 0 in
05:24 62.4 °F 59.4 °F 30.1 in Calm     90 % 0 in
05:28 62.4 °F 59.4 °F 30.1 in Calm     90 % 0 in
05:29 62.6 °F 59.5 °F 30.1 in Calm     90 % 0 in
05:32 62.6 °F 59.5 °F 30.1 in Calm     90 % 0 in
05:37 62.6 °F 59.5 °F 30.1 in Calm     90 % 0 in
05:42 62.6 °F 59.5 °F 30.1 in Calm     90 % 0 in
05:47 62.8 °F 59.7 °F 30.1 in Calm     90 % 0 in
05:53 62.8 °F 59.7 °F 30.1 in Calm     90 % 0 in
05:58 63 °F 60.3 °F 30.1 in Calm     91 % 0 in
06:03 63 °F 60.3 °F 30.1 in Calm     91 % 0 in
06:08 63 °F 60.3 °F 30.1 in Calm     91 % 0 in
06:13 63 °F 60.3 °F 30.1 in Calm     91 % 0 in
06:18 63.1 °F 60.4 °F 30.1 in Calm     91 % 0 in
06:23 63.1 °F 60.4 °F 30.1 in Calm     91 % 0 in
06:28 63.3 °F 60.6 °F 30.1 in Calm     91 % 0 in
06:33 63.5 °F 60.8 °F 30.1 in Calm     91 % 0 in
06:38 63.5 °F 60.8 °F 30.1 in Calm     91 % 0 in
06:43 63.7 °F 61 °F 30.1 in Calm     91 % 0 in
06:48 63.9 °F 61.2 °F 30.1 in Calm     91 % 0 in
06:53 63.9 °F 61.2 °F 30.1 in Calm     91 % 0 in
06:58 64 °F 61 °F 30.1 in Calm     90 % 0 in
07:03 64.2 °F 61.2 °F 30.1 in Calm     90 % 0 in
07:08 64.4 °F 61.3 °F 30.1 in Calm     90 % 0 in
07:13 64.6 °F 61.5 °F 30.1 in Calm     90 % 0 in
07:18 64.8 °F 61.9 °F 30.1 in Calm     90 % 0 in
07:23 64.8 °F 61.3 °F 30.1 in Calm     89 % 0 in
07:28 64.9 °F 61.5 °F 30.1 in Calm     89 % 0 in
07:33 65.1 °F 61.9 °F 30.1 in Calm     89 % 0 in
07:38 65.1 °F 61.9 °F 30.1 in Calm     89 % 0 in
07:43 65.1 °F 61.9 °F 30.1 in Calm     89 % 0 in
07:48 65.3 °F 62.1 °F 30.1 in Calm     89 % 0 in
07:53 65.5 °F 61.9 °F 30.1 in Calm     88 % 0 in
07:58 65.7 °F 62.1 °F 30.1 in Calm     88 % 0 in
08:03 65.7 °F 62.1 °F 30.1 in Calm     88 % 0 in
08:08 65.8 °F 62.2 °F 30.1 in Calm     88 % 0 in
08:13 65.8 °F 62.2 °F 30.1 in Calm     88 % 0 in
08:18 66 °F 62.4 °F 30.1 in Calm     88 % 0 in
08:23 66.2 °F 62.2 °F 30.1 in Calm     87 % 0 in
08:28 66.2 °F 62.2 °F 30.1 in Calm     87 % 0 in
08:33 66.4 °F 62.4 °F 30.1 in Calm     87 % 0 in
08:38 66.7 °F 62.8 °F 30.1 in Calm     87 % 0 in
08:43 66.9 °F 63 °F 30.1 in Calm     87 % 0 in
08:48 67.1 °F 63.1 °F 30.1 in Calm     87 % 0 in
08:53 67.3 °F 63.3 °F 30.1 in Calm     87 % 0 in
08:58 67.5 °F 63.5 °F 30.1 in Calm     87 % 0 in
09:03 67.8 °F 63.5 °F 30.1 in Calm     86 % 0 in
09:08 68 °F 63.7 °F 30.1 in Calm     86 % 0 in
09:13 68.4 °F 63.7 °F 30.1 in Calm     85 % 0 in
09:18 68.5 °F 63.9 °F 30.1 in South 0.3 mph 4.3 mph 85 % 0 in
09:23 68.7 °F 63.7 °F 30.1 in SSE 1 mph 4.3 mph 84 % 0 in
09:28 68.9 °F 63.9 °F 30.1 in SE 1 mph 3.6 mph 84 % 0 in
09:33 69.1 °F 64 °F 30.1 in SE 1 mph 4.5 mph 84 % 0 in
09:38 69.3 °F 63.9 °F 30.1 in SE 1.6 mph 4.5 mph 83 % 0 in
09:43 69.4 °F 64 °F 30.1 in SE 2 mph 6.3 mph 83 % 0 in
09:48 69.4 °F 63.7 °F 30.1 in ESE 2.7 mph 6.3 mph 82 % 0 in
09:53 69.4 °F 63.7 °F 30.1 in ESE 3.7 mph 8.1 mph 82 % 0 in
09:58 69.6 °F 63.9 °F 30.1 in SE 3.8 mph 8.1 mph 82 % 0 in
10:03 69.8 °F 64 °F 30.1 in ESE 3.2 mph 6 mph 82 % 0 in
10:08 69.8 °F 63.7 °F 30.1 in ESE 3.5 mph 6 mph 81 % 0 in
10:13 70 °F 63.9 °F 30.1 in ESE 3 mph 6 mph 81 % 0 in
10:18 70.3 °F 64.2 °F 30.1 in ESE 2.4 mph 5.8 mph 81 % 0 in
10:23 70.5 °F 64.4 °F 30.1 in SE 2.9 mph 5.8 mph 81 % 0 in
10:28 70.7 °F 64.6 °F 30.1 in SSE 3.1 mph 5.8 mph 81 % 0 in
10:33 70.9 °F 64.4 °F 30.1 in SE 2.2 mph 4.9 mph 80 % 0 in
10:38 71.2 °F 64.8 °F 30.1 in SE 1.9 mph 5.8 mph 80 % 0 in
10:43 72 °F 65.5 °F 30.1 in SSE 2.8 mph 5.8 mph 80 % 0 in
10:48 72.5 °F 65.7 °F 30.1 in SE 3 mph 4.9 mph 79 % 0 in
10:51 72.7 °F 65.8 °F 30.1 in SE 3.1 mph 5.6 mph 79 % 0 in
10:56 72.9 °F 65.7 °F 30.1 in SE 2.9 mph 5.6 mph 78 % 0 in
11:01 73.4 °F 66 °F 30.1 in SE 2.2 mph 4.3 mph 78 % 0 in
11:06 73.6 °F 65.8 °F 30.1 in ESE 1.7 mph 4.3 mph 77 % 0 in
11:11 73.9 °F 66.4 °F 30.1 in SE 1.6 mph 3.8 mph 77 % 0 in
11:16 74.3 °F 66.2 °F 30.1 in SSE 2.1 mph 4.3 mph 76 % 0 in
11:21 74.3 °F 66.2 °F 30 in South 1.7 mph 4.3 mph 76 % 0 in
11:26 74.5 °F 65.7 °F 30 in SSW 1.5 mph 6 mph 74 % 0 in
11:31 74.8 °F 66 °F 30 in SSE 2.1 mph 6 mph 74 % 0 in
11:36 75.2 °F 66.4 °F 30 in ESE 1.8 mph 5.4 mph 74 % 0 in
11:41 75.6 °F 66.4 °F 30 in SE 2.4 mph 5.4 mph 73 % 0 in
11:46 75.7 °F 66 °F 30 in SE 3.3 mph 6.3 mph 72 % 0 in
11:51 75.6 °F 65.5 °F 30 in South 3.4 mph 6.3 mph 71 % 0 in
11:56 75.7 °F 66 °F 30 in SSW 2.8 mph 5.6 mph 72 % 0 in
12:01 75.7 °F 65.7 °F 30 in SSE 3.4 mph 7.4 mph 71 % 0 in
12:06 75.6 °F 65.1 °F 30 in SE 3.5 mph 7.4 mph 70 % 0 in
12:11 75.4 °F 64.9 °F 30 in ESE 1.7 mph 6.5 mph 70 % 0 in
12:16 75.6 °F 64.8 °F 30 in East 1 mph 3.8 mph 69 % 0 in
12:21 75.6 °F 64.8 °F 30 in ESE 2 mph 6.3 mph 69 % 0 in
12:26 75.4 °F 64.6 °F 30 in SE 3.2 mph 6.3 mph 69 % 0 in
12:27 75.4 °F 64.6 °F 30 in SE 3.3 mph 6.3 mph 69 % 0 in
12:32 75.4 °F 64.6 °F 30 in SE 3.2 mph 6 mph 69 % 0 in
12:37 75.2 °F 64.8 °F 30 in SSE 2.3 mph 6 mph 70 % 0 in
12:42 75.2 °F 64.8 °F 30 in ESE 2.6 mph 6.5 mph 70 % 0 in
12:47 75.7 °F 65.3 °F 30 in East 2.5 mph 6.5 mph 70 % 0 in
12:53 76.3 °F 65.8 °F 30 in SE 2.3 mph 5.6 mph 70 % 0 in
12:58 32 °F 66.4 °F 0 in Calm     0 % 0 in
13:03 77.5 °F 66 °F 30 in SSE 3.4 mph 4.9 mph 68 % 0 in
13:05 77.5 °F 65.7 °F 30 in South 3.1 mph 4.9 mph 67 % 0 in
13:10 77.7 °F 65.8 °F 30 in SSE 2.8 mph 4.9 mph 67 % 0 in
13:14 78.1 °F 66.2 °F 30 in SE 2.5 mph 5.6 mph 67 % 0 in
13:19 78.6 °F 66.4 °F 30 in ESE 2.6 mph 5.6 mph 66 % 0 in
13:24 79.2 °F 66.4 °F 30 in ESE 2.2 mph 5.6 mph 65 % 0 in
13:29 79.5 °F 66.7 °F 30 in SSE 2.3 mph 5.8 mph 65 % 0 in
13:34 79.5 °F 65.8 °F 30 in SSE 2.1 mph 5.8 mph 63 % 0 in
13:39 80.1 °F 66.4 °F 30 in SE 2 mph 5.6 mph 63 % 0 in
13:44 80.2 °F 66 °F 30 in SE 3.8 mph 9.6 mph 62 % 0 in
13:49 80.4 °F 65.7 °F 30 in ESE 3.7 mph 9.6 mph 61 % 0 in
13:54 79.9 °F 64.8 °F 30 in ENE 2 mph 4 mph 60 % 0 in
13:59 79.9 °F 64.8 °F 30 in NE 2.2 mph 6.5 mph 60 % 0 in
14:04 80.4 °F 65.7 °F 30 in ESE 2.9 mph 6.5 mph 61 % 0 in
14:09 80.6 °F 64.9 °F 30 in SSE 3.3 mph 5.6 mph 59 % 0 in
14:14 81 °F 65.8 °F 30 in South 2.5 mph 5.6 mph 60 % 0 in
14:19 81 °F 65.8 °F 30 in ESE 2.4 mph 5.8 mph 60 % 0 in
14:24 81 °F 65.3 °F 30 in ESE 3 mph 5.8 mph 59 % 0 in
14:29 81.1 °F 65.8 °F 30 in SE 2.5 mph 4.9 mph 60 % 0 in
14:34 81.3 °F 65.7 °F 30 in South 2.4 mph 4.7 mph 59 % 0 in
14:35 81.3 °F 65.7 °F 30 in South 2.5 mph 4.7 mph 59 % 0 in
14:40 81.3 °F 65.7 °F 30 in SE 2.9 mph 7.6 mph 59 % 0 in
14:45 81.3 °F 65.7 °F 30 in SE 3.5 mph 7.6 mph 59 % 0 in
14:50 81.7 °F 65.5 °F 30 in SE 3.7 mph 7.6 mph 58 % 0 in
14:55 81.7 °F 65.5 °F 30 in SE 3.6 mph 7.6 mph 58 % 0 in
15:00 81.7 °F 64.9 °F 30 in East 3.3 mph 6.3 mph 57 % 0 in
15:05 81.7 °F 65.5 °F 30 in SE 2.6 mph 5.4 mph 58 % 0 in
15:10 82 °F 66.4 °F 30 in SW 2.1 mph 4.9 mph 59 % 0 in
15:15 82.4 °F 65.7 °F 30 in SE 2.1 mph 6.5 mph 57 % 0 in
15:20 82.4 °F 65.7 °F 30 in ESE 2.7 mph 6.5 mph 57 % 0 in
15:25 82.6 °F 65.8 °F 30 in SE 2.9 mph 6.3 mph 57 % 0 in
15:30 82.6 °F 65.3 °F 30 in ESE 1.7 mph 4.9 mph 56 % 0 in
15:35 82.6 °F 65.3 °F 30 in SE 2 mph 6.3 mph 56 % 0 in
15:40 82.6 °F 65.3 °F 30 in SSW 2.4 mph 6.3 mph 56 % 0 in
15:45 82.8 °F 65.5 °F 30 in South 2.1 mph 5.8 mph 56 % 0 in
15:50 82.9 °F 65.7 °F 30 in SSE 2.5 mph 5.8 mph 56 % 0 in
15:55 83.3 °F 66.6 °F 30 in SE 3.2 mph 5.8 mph 57 % 0 in
16:00 83.5 °F 66.6 °F 30 in ESE 2.1 mph 5.8 mph 57 % 0 in
16:05 83.5 °F 66 °F 30 in SE 2.2 mph 5.8 mph 56 % 0 in
16:10 83.5 °F 66 °F 30 in South 1.8 mph 5.8 mph 56 % 0 in
16:15 83.5 °F 65.7 °F 30 in West 1.3 mph 2.9 mph 55 % 0 in
16:20 83.3 °F 65.5 °F 30 in NW 1.8 mph 3.6 mph 55 % 0 in
16:25 83.3 °F 66 °F 30 in North 1.5 mph 3.6 mph 56 % 0 in
16:35 83.3 °F 64.9 °F 30 in West 1.7 mph 3.6 mph 54 % 0 in
16:40 83.3 °F 65.5 °F 30 in NW 1.3 mph 3.6 mph 55 % 0 in
16:45 83.3 °F 65.5 °F 30 in WNW 1.3 mph 3.4 mph 55 % 0 in
16:50 83.5 °F 65.7 °F 29.9 in South 1.2 mph 3.1 mph 55 % 0 in
16:55 84 °F 66 °F 29.9 in South 1.9 mph 3.8 mph 55 % 0 in
17:00 84.2 °F 65.8 °F 29.9 in South 1.7 mph 3.8 mph 54 % 0 in
17:05 84.2 °F 65.8 °F 29.9 in SSE 1.4 mph 4.3 mph 54 % 0 in
17:10 84.4 °F 65.8 °F 29.9 in SSE 1.9 mph 4.3 mph 54 % 0 in
17:15 84.4 °F 65.8 °F 29.9 in South 2.3 mph 5.6 mph 54 % 0 in
17:20 84.4 °F 65.5 °F 29.9 in South 2.3 mph 5.6 mph 53 % 0 in
17:25 84.6 °F 66 °F 29.9 in South 2.1 mph 3.6 mph 54 % 0 in
17:30 84.6 °F 66 °F 29.9 in SSE 2 mph 3.6 mph 54 % 0 in
17:36 84.6 °F 65.5 °F 29.9 in South 1.9 mph 4.3 mph 53 % 0 in
17:41 84.4 °F 65.5 °F 29.9 in South 2.4 mph 4.3 mph 53 % 0 in
17:46 83.8 °F 64.9 °F 29.9 in SSW 2.4 mph 4.3 mph 53 % 0 in
17:51 83.7 °F 65.3 °F 29.9 in SSW 1.6 mph 4.9 mph 54 % 0 in
17:56 83.3 °F 64.9 °F 29.9 in South 1.5 mph 4.9 mph 54 % 0 in
18:01 83.3 °F 65.5 °F 29.9 in South 1.8 mph 3.6 mph 55 % 0 in
18:06 82.9 °F 65.1 °F 29.9 in SSE 1.9 mph 4.9 mph 55 % 0 in
18:11 82.6 °F 65.3 °F 29.9 in SE 2.3 mph 4.9 mph 56 % 0 in
18:16 82.2 °F 64.9 °F 29.9 in SE 1.9 mph 3.6 mph 56 % 0 in
18:21 81.7 °F 64.9 °F 29.9 in SSE 1.6 mph 3.6 mph 57 % 0 in
18:26 81.3 °F 65.1 °F 29.9 in SSW 1.3 mph 3.1 mph 58 % 0 in
18:31 80.8 °F 64.6 °F 29.9 in WSW 1.4 mph 2.9 mph 58 % 0 in
18:36 80.4 °F 65.3 °F 29.9 in WSW 1.6 mph 2.9 mph 60 % 0 in
18:41 80.1 °F 65.5 °F 29.9 in SW 1.2 mph 2.9 mph 61 % 0 in
18:46 79.5 °F 66.4 °F 29.9 in WSW 0.9 mph 2.2 mph 64 % 0 in
18:51 79.2 °F 65.8 °F 29.9 in NW 0.9 mph 2.7 mph 64 % 0 in
18:56 78.8 °F 66 °F 29.9 in NNW 1 mph 2.7 mph 65 % 0 in
19:01 78.6 °F 66.7 °F 29.9 in NW 0.5 mph 2 mph 67 % 0 in
19:06 78.1 °F 66.2 °F 30 in NW 0.3 mph 2 mph 67 % 0 in
19:11 77.7 °F 65.8 °F 30 in NNW 0.4 mph 2.5 mph 67 % 0 in
19:16 77.4 °F 66.4 °F 30 in North 0.2 mph 2.5 mph 69 % 0 in
19:21 77 °F 66 °F 30 in North 0.1 mph 2.5 mph 69 % 0 in
19:26 76.6 °F 66 °F 30 in NNW 0.6 mph 2.9 mph 70 % 0 in
19:31 76.3 °F 66.2 °F 30 in NW 1.1 mph 2.9 mph 71 % 0 in
19:36 75.9 °F 65.8 °F 30 in NNW 0.9 mph 2.7 mph 71 % 0 in
19:41 75.6 °F 65.8 °F 30 in NNW 0.4 mph 2.5 mph 72 % 0 in
19:46 75.2 °F 65.8 °F 30 in NNW 0.8 mph 3.8 mph 73 % 0 in
19:51 75 °F 66.2 °F 30 in NNW 1.5 mph 3.8 mph 74 % 0 in
19:56 74.7 °F 66.2 °F 30 in NNW 1.5 mph 3.4 mph 75 % 0 in
20:01 74.5 °F 66 °F 30 in NW 1.1 mph 3.4 mph 75 % 0 in
20:06 74.1 °F 66 °F 30 in North 0.9 mph 2.9 mph 76 % 0 in
20:11 73.8 °F 66 °F 30 in North 0.6 mph 2.9 mph 77 % 0 in
20:16 73.4 °F 65.7 °F 30 in Calm     77 % 0 in
20:21 73 °F 65.8 °F 30 in NNW 0.3 mph 3.6 mph 78 % 0 in
20:26 72.9 °F 66 °F 30 in NNW 0.7 mph 3.6 mph 79 % 0 in
20:31 72.7 °F 65.8 °F 30 in NNW 0.5 mph 2.7 mph 79 % 0 in
20:36 72.3 °F 65.8 °F 30 in NNW 0.1 mph 2 mph 80 % 0 in
20:41 72 °F 65.8 °F 30 in WNW 0.1 mph 1.6 mph 81 % 0 in
20:46 71.6 °F 65.5 °F 30 in WNW 0.1 mph 1.6 mph 81 % 0 in
20:51 71.6 °F 65.5 °F 30 in NNW 0.4 mph 2.7 mph 81 % 0 in
20:56 71.2 °F 65.5 °F 30 in NNW 0.6 mph 2.7 mph 82 % 0 in
21:01 71.1 °F 65.7 °F 30 in NNW 0.2 mph 2 mph 83 % 0 in
21:06 70.9 °F 65.5 °F 30 in North 0.1 mph 1.6 mph 83 % 0 in
21:11 70.5 °F 65.5 °F 30 in Calm   1.6 mph 84 % 0 in
21:16 70.3 °F 65.3 °F 30 in NNW 0.6 mph 2.5 mph 84 % 0 in
21:21 70.3 °F 65.3 °F 30 in NNW 0.6 mph 2.5 mph 84 % 0 in
21:24 70.2 °F 65.1 °F 30 in North 0.2 mph 2 mph 84 % 0 in
21:29 70 °F 65.3 °F 30 in East 0.5 mph 2.7 mph 85 % 0 in
21:34 69.8 °F 65.1 °F 30 in ESE 0.5 mph 2.7 mph 85 % 0 in
21:39 69.6 °F 65.1 °F 30 in NW 0.2 mph 2 mph 86 % 0 in
21:44 69.6 °F 65.7 °F 30 in NW 0.2 mph 2 mph 87 % 0 in
21:49 69.4 °F 65.5 °F 30 in NW 0.1 mph 2 mph 87 % 0 in
21:54 69.3 °F 65.1 °F 30 in Calm   1.3 mph 87 % 0 in
21:59 69.1 °F 64.9 °F 30 in Calm   1.3 mph 87 % 0 in
22:04 68.9 °F 64.9 °F 30 in Calm     87 % 0 in
22:09 68.7 °F 64.9 °F 30 in Calm   2.5 mph 88 % 0 in
22:14 68.7 °F 64.9 °F 30 in NNW 0.2 mph 2.5 mph 88 % 0 in
22:19 68.7 °F 64.9 °F 30 in NNW 0.2 mph 2.5 mph 88 % 0 in
22:24 68.5 °F 64.8 °F 30 in Calm     88 % 0 in
22:29 68.5 °F 65.1 °F 30 in Calm     89 % 0 in
22:34 68.4 °F 64.9 °F 30 in Calm     89 % 0 in
22:39 68.2 °F 64.8 °F 30 in Calm   1.1 mph 89 % 0 in
22:44 68.2 °F 64.8 °F 30 in Calm   1.1 mph 89 % 0 in
22:49 68 °F 64.6 °F 30 in Calm     89 % 0 in
22:54 67.8 °F 64.8 °F 30 in Calm   2.5 mph 90 % 0 in
22:59 67.8 °F 64.8 °F 30 in NW 0.5 mph 3.8 mph 90 % 0 in
23:04 67.8 °F 64.8 °F 30 in North 1.5 mph 3.8 mph 90 % 0 in
23:09 67.8 °F 64.8 °F 30 in ENE 1.2 mph 3.6 mph 90 % 0 in
23:14 67.8 °F 64.8 °F 30 in NW 0.3 mph 2.7 mph 90 % 0 in
23:19 67.8 °F 65.1 °F 30 in NW 0.5 mph 2.7 mph 91 % 0 in
23:24 67.6 °F 64.6 °F 30 in NW 0.4 mph 2.2 mph 90 % 0 in
23:29 67.6 °F 64.9 °F 30 in NW 0.1 mph 1.3 mph 91 % 0 in
23:34 67.5 °F 64.8 °F 30 in Calm     91 % 0 in
23:39 67.3 °F 64.6 °F 30 in Calm     91 % 0 in
23:44 67.3 °F 64.6 °F 30 in Calm     91 % 0 in
23:49 67.1 °F 64.4 °F 30 in Calm     91 % 0 in
23:54 67.1 °F 64.4 °F 30 in NW 0.1 mph 1.6 mph 91 % 0 in
23:59 66.9 °F 64.2 °F 30 in NW 0.2 mph 2.2 mph 91 % 0 in
Vremenska postaja Senovo
Podatki zbrani iz Weather Underground - 3 mb

Script developed by  Jim McMurry - jmcmurry@mwt.net Adapted for the template by  Wim van der Kuil - Leuven-Template.eu

Vremenski podatki so objavljeni na:

WeatherCloud

Weather Underground

AWEKAS

HAMweather, WeatherForYou, PWS Weather

MapView

Geostik

Slovenia weather network

Oprema, ki se uporablja:

Vremenski program
Cumulus

Cumulus